{"data":{"norad_id":41471,"epoch":"2026-09-19T18:05:38.651712Z","epoch_age_seconds":91533,"freshness":"FRESH","line1":"1 41471U 16028A   26262.75391958 -.00000169  00000+0  00000+0 0  9994","line2":"2 41471   0.0181 153.3059 0000996  11.3987 259.3778  1.00271057 38070","mean_motion":1.00271057,"eccentricity":9.96e-5,"inclination_deg":0.0181,"raan_deg":153.3059,"arg_perigee_deg":11.3987,"mean_anomaly_deg":259.3778,"bstar":0,"rev_number":3807,"period_min":1436.107330553,"perigee_km":35782.599419622,"apogee_km":35790.998674883,"semimajor_km":42164.936047253,"source":"CELESTRAK","updated_at":"2026-09-20T09:00:35.224475Z"}}